2015-10-29 00:06:14 r, 15.12m,0000000079Hz,0000005820c,0000000.013s, 020.9C,00002195
2015-10-29 00:16:14 r, 15.13m,0000000078Hz,0000005883c,0000000.013s, 020.9C,00002195
2015-10-29 00:26:14 r, 15.15m,0000000076Hz,0000006009c,0000000.013s, 020.9C,00002195
2015-10-29 00:36:15 r, 15.23m,0000000071Hz,0000006458c,0000000.014s, 020.9C,00002195
2015-10-29 00:46:14 r, 15.18m,0000000074Hz,0000006142c,0000000.013s, 020.9C,00002195
2015-10-29 00:56:15 r, 15.25m,0000000072Hz,0000006552c,0000000.014s, 020.9C,00002195
2015-10-29 01:06:14 r, 15.20m,0000000072Hz,0000006278c,0000000.014s, 020.9C,00002195
2015-10-29 01:16:14 r, 15.16m,0000000077Hz,0000006046c,0000000.013s, 020.9C,00002195
2015-10-29 01:26:16 r, 15.11m,0000000080Hz,0000005737c,0000000.012s, 020.9C,00002195
2015-10-29 01:36:14 r, 15.09m,0000000081Hz,0000005655c,0000000.012s, 020.9C,00002195
2015-10-29 01:46:14 r, 15.07m,0000000083Hz,0000005562c,0000000.012s, 020.9C,00002195
2015-10-29 01:56:14 r, 15.08m,0000000082Hz,0000005609c,0000000.012s, 020.9C,00002195
2015-10-29 02:06:15 r, 15.07m,0000000082Hz,0000005582c,0000000.012s, 021.2C,00002195
2015-10-29 02:16:14 r, 15.08m,0000000082Hz,0000005610c,0000000.012s, 021.2C,00002195
2015-10-29 02:26:15 r, 15.10m,0000000081Hz,0000005680c,0000000.012s, 020.9C,00002195
2015-10-29 02:36:14 r, 15.14m,0000000077Hz,0000005926c,0000000.013s, 020.9C,00002195
2015-10-29 02:46:14 r, 15.14m,0000000076Hz,0000005940c,0000000.013s, 020.9C,00002195
2015-10-29 02:56:15 r, 15.12m,0000000079Hz,0000005844c,0000000.013s, 020.9C,00002195
2015-10-29 03:06:14 r, 15.09m,0000000081Hz,0000005663c,0000000.012s, 020.9C,00002195
2015-10-29 03:16:14 r, 15.11m,0000000080Hz,0000005734c,0000000.012s, 020.9C,00002195
2015-10-29 03:26:14 r, 15.10m,0000000081Hz,0000005713c,0000000.012s, 020.9C,00002195
2015-10-29 03:36:16 r, 15.11m,0000000080Hz,0000005767c,0000000.013s, 020.9C,00002195
2015-10-29 03:46:14 r, 15.11m,0000000079Hz,0000005758c,0000000.012s, 020.9C,00002195
2015-10-29 03:56:16 r, 15.07m,0000000082Hz,0000005596c,0000000.012s, 020.9C,00002195
2015-10-29 04:06:14 r, 15.03m,0000000086Hz,0000005372c,0000000.012s, 020.9C,00002195
2015-10-29 04:16:14 r, 14.99m,0000000089Hz,0000005181c,0000000.011s, 020.9C,00002195
2015-10-29 04:26:16 r, 14.97m,0000000091Hz,0000005097c,0000000.011s, 020.9C,00002195
2015-10-29 04:36:14 r, 14.96m,0000000092Hz,0000005039c,0000000.011s, 020.9C,00002195
2015-10-29 04:46:14 r, 14.96m,0000000092Hz,0000005038c,0000000.011s, 020.9C,00002195
2015-10-29 04:56:15 r, 14.93m,0000000092Hz,0000004917c,0000000.011s, 020.9C,00002195
2015-10-29 05:06:14 r, 14.97m,0000000091Hz,0000005092c,0000000.011s, 020.9C,00002195
2015-10-29 05:16:14 r, 14.93m,0000000094Hz,0000004865c,0000000.011s, 020.9C,00002195
2015-10-29 05:26:14 r, 14.90m,0000000097Hz,0000004748c,0000000.010s, 020.9C,00002195
2015-10-29 05:36:16 r, 14.87m,0000000100Hz,0000004650c,0000000.010s, 020.9C,00002195
2015-10-29 05:46:14 r, 14.88m,0000000098Hz,0000004676c,0000000.010s, 020.9C,00002195
2015-10-29 05:56:14 r, 14.89m,0000000098Hz,0000004711c,0000000.010s, 020.9C,00002195
2015-10-29 06:06:14 r, 14.89m,0000000097Hz,0000004722c,0000000.010s, 020.9C,00002195
2015-10-29 06:16:14 r, 14.96m,0000000091Hz,0000005028c,0000000.011s, 020.9C,00002195
2015-10-29 06:26:14 r, 14.90m,0000000096Hz,0000004786c,0000000.010s, 020.9C,00002195
2015-10-29 06:36:14 r, 14.92m,0000000095Hz,0000004861c,0000000.011s, 020.9C,00002195
2015-10-29 06:46:14 r, 14.95m,0000000093Hz,0000004961c,0000000.011s, 020.9C,00002195
2015-10-29 06:56:14 r, 15.05m,0000000085Hz,0000005489c,0000000.012s, 021.2C,00002195
2015-10-29 07:06:14 r, 16.53m,0000000021Hz,0000021369c,0000000.046s, 020.9C,00002195
2015-10-29 07:16:14 r, 15.46m,0000000057Hz,0000007956c,0000000.017s, 020.9C,00002195
2015-10-29 07:26:14 r, 15.14m,0000000075Hz,0000005916c,0000000.013s, 020.9C,00002195
2015-10-29 07:36:16 r, 13.51m,0000000351Hz,0000000000c,0000000.000s, 020.9C,00002195
2015-10-29 07:46:14 r, 11.71m,0000001844Hz,0000000000c,0000000.000s, 020.9C,00002195
2015-10-29 07:56:14 r, 09.57m,0000013205Hz,0000000000c,0000000.000s, 020.9C,00002195
2015-10-29 08:06:16 r, 08.27m,0000043915Hz,0000000000c,0000000.000s, 020.9C,00002195
2015-10-29 08:16:14 r, 07.09m,0000129034Hz,0000000000c,0000000.000s, 020.6C,00002195
2015-10-29 08:26:14 r, 07.06m,0000133506Hz,0000000000c,0000000.000s, 020.9C,00002195
2015-10-29 08:36:14 r, 06.85m,0000162531Hz,0000000000c,0000000.000s, 020.6C,00002195
2015-10-29 08:46:15 r, 06.55m,0000214868Hz,0000000000c,0000000.000s, 020.6C,00002195
2015-10-29 08:56:14 r, 06.21m,0000293244Hz,0000000000c,0000000.000s, 020.6C,00002195
2015-10-29 09:06:15 r, 00.00m,0000411998Hz,0000000000c,0000000.000s, 020.6C,00002195
2015-10-29 09:16:14 r, 00.00m,0000483947Hz,0000000000c,0000000.000s, 020.9C,00002195
2015-10-29 09:26:14 r, 00.00m,0000433865Hz,0000000000c,0000000.000s, 020.6C,00002195
2015-10-29 09:36:15 r, 00.00m,0000563645Hz,0000000000c,0000000.000s, 020.6C,00002195
2015-10-29 09:46:15 r, 00.00m,0000563685Hz,0000000000c,0000000.000s, 020.9C,00002195
2015-10-29 09:56:14 r, 00.00m,0000563663Hz,0000000000c,0000000.000s, 021.2C,00002195
2015-10-29 10:06:16 r, 00.00m,0000563710Hz,0000000000c,0000000.000s, 021.2C,00002195
2015-10-29 10:16:15 r, 00.00m,0000563701Hz,0000000000c,0000000.000s, 021.2C,00002195
2015-10-29 10:26:14 r, 00.00m,0000563785Hz,0000000000c,0000000.000s, 021.5C,00002195
2015-10-29 10:36:16 r, 00.00m,0000563685Hz,0000000000c,0000000.000s, 021.2C,00002195
2015-10-29 10:46:14 r, 00.00m,0000563638Hz,0000000000c,0000000.000s, 021.2C,00002195
2015-10-29 10:56:16 r, 00.00m,0000563727Hz,0000000000c,0000000.000s, 021.2C,00002195
2015-10-29 11:06:15 r, 00.00m,0000563692Hz,0000000000c,0000000.000s, 021.5C,00002195
2015-10-29 11:16:15 r, 00.00m,0000563677Hz,0000000000c,0000000.000s, 021.2C,00002195
2015-10-29 11:26:14 r, 00.00m,0000563716Hz,0000000000c,0000000.000s, 021.5C,00002195
2015-10-29 11:36:15 r, 00.00m,0000563787Hz,0000000000c,0000000.000s, 021.5C,00002195
2015-10-29 11:46:14 r, 00.00m,0000563768Hz,0000000000c,0000000.000s, 021.9C,00002195
2015-10-29 11:56:14 r, 00.00m,0000563720Hz,0000000000c,0000000.000s, 021.9C,00002195
2015-10-29 12:06:16 r, 00.00m,0000563744Hz,0000000000c,0000000.000s, 021.9C,00002195
2015-10-29 12:16:14 r, 00.00m,0000563900Hz,0000000000c,0000000.000s, 022.2C,00002195
2015-10-29 12:26:14 r, 00.00m,0000563934Hz,0000000000c,0000000.000s, 022.8C,00002195
2015-10-29 12:36:16 r, 00.00m,0000563963Hz,0000000000c,0000000.000s, 023.2C,00002195
2015-10-29 12:46:15 r, 00.00m,0000563898Hz,0000000000c,0000000.000s, 023.2C,00002195
2015-10-29 12:56:14 r, 00.00m,0000563955Hz,0000000000c,0000000.000s, 022.8C,00002195
2015-10-29 13:06:15 r, 00.00m,0000563957Hz,0000000000c,0000000.000s, 022.8C,00002195
2015-10-29 13:16:15 r, 00.00m,0000563890Hz,0000000000c,0000000.000s, 022.8C,00002195
2015-10-29 13:26:14 r, 00.00m,0000563903Hz,0000000000c,0000000.000s, 022.8C,00002195
2015-10-29 13:36:14 r, 00.00m,0000563919Hz,0000000000c,0000000.000s, 023.2C,00002195
2015-10-29 13:46:16 r, 00.00m,0000563923Hz,0000000000c,0000000.000s, 023.2C,00002195
2015-10-29 13:56:14 r, 00.00m,0000563945Hz,0000000000c,0000000.000s, 023.2C,00002195
2015-10-29 14:06:14 r, 00.00m,0000563886Hz,0000000000c,0000000.000s, 022.8C,00002195
2015-10-29 14:16:16 r, 00.00m,0000563944Hz,0000000000c,0000000.000s, 022.8C,00002195
2015-10-29 14:26:15 r, 00.00m,0000563896Hz,0000000000c,0000000.000s, 022.8C,00002195
2015-10-29 14:36:15 r, 00.00m,0000563915Hz,0000000000c,0000000.000s, 023.2C,00002195
2015-10-29 14:46:15 r, 00.00m,0000563856Hz,0000000000c,0000000.000s, 022.8C,00002195
2015-10-29 14:56:15 r, 00.00m,0000563898Hz,0000000000c,0000000.000s, 022.8C,00002195
2015-10-29 15:06:15 r, 00.00m,0000563799Hz,0000000000c,0000000.000s, 022.8C,00002195
2015-10-29 15:16:15 r, 00.00m,0000563829Hz,0000000000c,0000000.000s, 022.8C,00002195
2015-10-29 15:26:14 r, 00.00m,0000563771Hz,0000000000c,0000000.000s, 022.5C,00002195
2015-10-29 15:36:14 r, 00.00m,0000563777Hz,0000000000c,0000000.000s, 022.5C,00002195
2015-10-29 15:46:15 r, 00.00m,0000563780Hz,0000000000c,0000000.000s, 022.2C,00002195
2015-10-29 15:56:14 r, 00.00m,0000563773Hz,0000000000c,0000000.000s, 022.2C,00002195
2015-10-29 16:06:15 r, 00.00m,0000563816Hz,0000000000c,0000000.000s, 022.2C,00002195
2015-10-29 16:16:16 r, 00.00m,0000563711Hz,0000000000c,0000000.000s, 021.9C,00002195
2015-10-29 16:26:14 r, 00.00m,0000563781Hz,0000000000c,0000000.000s, 021.9C,00002195
2015-10-29 16:36:15 r, 00.00m,0000563726Hz,0000000000c,0000000.000s, 021.9C,00002195
2015-10-29 16:46:15 r, 00.00m,0000563721Hz,0000000000c,0000000.000s, 021.9C,00002195
2015-10-29 16:56:14 r, 00.00m,0000563750Hz,0000000000c,0000000.000s, 021.9C,00002195
2015-10-29 17:06:14 r, 00.00m,0000563758Hz,0000000000c,0000000.000s, 021.5C,00002195
2015-10-29 17:16:14 r, 00.00m,0000563712Hz,0000000000c,0000000.000s, 021.5C,00002195
2015-10-29 17:26:14 r, 00.00m,0000563769Hz,0000000000c,0000000.000s, 021.5C,00002195
2015-10-29 17:36:15 r, 00.00m,0000401694Hz,0000000000c,0000000.000s, 021.5C,00002195
2015-10-29 17:46:14 r, 06.17m,0000303570Hz,0000000000c,0000000.000s, 021.5C,00002195
2015-10-29 17:56:14 r, 06.87m,0000159734Hz,0000000000c,0000000.000s, 021.2C,00002195
2015-10-29 18:06:15 r, 07.83m,0000065672Hz,0000000000c,0000000.000s, 021.2C,00002195
2015-10-29 18:16:15 r, 08.64m,0000031163Hz,0000000000c,0000000.000s, 021.2C,00002195
2015-10-29 18:26:14 r, 10.02m,0000008809Hz,0000000000c,0000000.000s, 020.9C,00002195
2015-10-29 18:36:15 r, 11.78m,0000001725Hz,0000000000c,0000000.000s, 020.9C,00002195
2015-10-29 18:46:15 r, 13.64m,0000000312Hz,0000000000c,0000000.000s, 020.9C,00002195
2015-10-29 18:56:14 r, 14.70m,0000000116Hz,0000003960c,0000000.009s, 020.9C,00002195
2015-10-29 19:06:14 r, 15.08m,0000000082Hz,0000005612c,0000000.012s, 020.9C,00002195
2015-10-29 19:16:15 r, 15.20m,0000000074Hz,0000006271c,0000000.014s, 020.9C,00002195
2015-10-29 19:26:14 r, 15.23m,0000000071Hz,0000006452c,0000000.014s, 020.9C,00002195
2015-10-29 19:36:15 r, 15.15m,0000000077Hz,0000005992c,0000000.013s, 020.9C,00002195
2015-10-29 19:46:15 r, 15.10m,0000000081Hz,0000005726c,0000000.012s, 020.9C,00002195
2015-10-29 19:56:14 r, 15.09m,0000000081Hz,0000005643c,0000000.012s, 020.9C,00002195
2015-10-29 20:06:15 r, 15.11m,0000000080Hz,0000005777c,0000000.013s, 020.9C,00002195
2015-10-29 20:16:15 r, 15.14m,0000000077Hz,0000005897c,0000000.013s, 020.9C,00002195
2015-10-29 20:26:14 r, 15.18m,0000000074Hz,0000006166c,0000000.013s, 020.9C,00002195
2015-10-29 20:36:15 r, 15.25m,0000000071Hz,0000006571c,0000000.014s, 020.6C,00002195
2015-10-29 20:46:15 r, 15.15m,0000000077Hz,0000005966c,0000000.013s, 020.6C,00002195
2015-10-29 20:56:14 r, 15.22m,0000000072Hz,0000006371c,0000000.014s, 020.6C,00002195
2015-10-29 21:06:17 r, 15.22m,0000000071Hz,0000006378c,0000000.014s, 020.6C,00002195
2015-10-29 21:16:15 r, 15.18m,0000000075Hz,0000006132c,0000000.013s, 020.6C,00002195
2015-10-29 21:26:14 r, 15.18m,0000000074Hz,0000006143c,0000000.013s, 020.6C,00002195
2015-10-29 21:36:17 r, 15.17m,0000000076Hz,0000006068c,0000000.013s, 020.6C,00002195
2015-10-29 21:46:14 r, 15.17m,0000000077Hz,0000006064c,0000000.013s, 020.6C,00002195
2015-10-29 21:56:14 r, 15.13m,0000000078Hz,0000005872c,0000000.013s, 020.6C,00002195
2015-10-29 22:06:14 r, 15.17m,0000000077Hz,0000006057c,0000000.013s, 020.6C,00002195
2015-10-29 22:16:15 r, 15.10m,0000000081Hz,0000005697c,0000000.012s, 020.6C,00002195
2015-10-29 22:26:14 r, 15.15m,0000000076Hz,0000005963c,0000000.013s, 020.6C,00002195
2015-10-29 22:36:15 r, 15.18m,0000000076Hz,0000006158c,0000000.013s, 020.3C,00002195
2015-10-29 22:46:15 r, 15.51m,0000000055Hz,0000008383c,0000000.018s, 020.3C,00002195
2015-10-29 22:56:14 r, 15.50m,0000000056Hz,0000008308c,0000000.018s, 020.3C,00002195
2015-10-29 23:06:15 r, 15.32m,0000000065Hz,0000007034c,0000000.015s, 020.3C,00002195
2015-10-29 23:16:17 r, 15.27m,0000000069Hz,0000006686c,0000000.015s, 020.3C,00002195
2015-10-29 23:26:14 r, 15.18m,0000000074Hz,0000006152c,0000000.013s, 020.3C,00002195
2015-10-29 23:36:17 r, 15.15m,0000000077Hz,0000005981c,0000000.013s, 020.6C,00002195
2015-10-29 23:46:15 r, 15.09m,0000000081Hz,0000005658c,0000000.012s, 020.6C,00002195
2015-10-29 23:56:14 r, 15.12m,0000000079Hz,0000005803c,0000000.013s, 020.6C,00002195
